TimeAKDT,TemperatureF,Dew PointF,Humidity,Sea Level PressureIn,VisibilityMPH,Wind Direction,Wind SpeedMPH,Gust SpeedMPH,PrecipitationIn,Events,Conditions,WindDirDegrees,DateUTC
12:53 AM,59.0,30.0,33,30.30,10.0,NNE,13.8,-,N/A,,Clear,30,2014-05-02 08:53:00
1:53 AM,59.0,28.9,32,30.30,10.0,NNE,16.1,-,N/A,,Clear,30,2014-05-02 09:53:00
2:53 AM,57.9,28.9,33,30.30,10.0,NNE,15.0,-,N/A,,Clear,30,2014-05-02 10:53:00
3:53 AM,57.9,28.9,33,30.30,10.0,NNE,16.1,-,N/A,,Clear,30,2014-05-02 11:53:00
4:53 AM,57.0,28.9,34,30.30,10.0,NNE,13.8,23.0,N/A,,Clear,30,2014-05-02 12:53:00
5:53 AM,57.0,28.0,33,30.29,10.0,NNE,20.7,28.8,N/A,,Clear,20,2014-05-02 13:53:00
6:53 AM,55.9,28.9,36,30.29,10.0,NNE,16.1,-,N/A,,Clear,30,2014-05-02 14:53:00
7:53 AM,59.0,28.9,32,30.28,10.0,NNE,19.6,27.6,N/A,,Clear,30,2014-05-02 15:53:00
8:53 AM,61.0,28.9,30,30.28,10.0,NNE,13.8,20.7,N/A,,Clear,30,2014-05-02 16:53:00
9:53 AM,62.1,30.0,30,30.27,10.0,NNE,10.4,-,N/A,,Clear,30,2014-05-02 17:53:00
10:53 AM,64.0,28.0,26,30.25,10.0,NE,17.3,26.5,N/A,,Clear,40,2014-05-02 18:53:00
11:53 AM,64.9,27.0,24,30.24,10.0,NNE,17.3,25.3,N/A,,Clear,30,2014-05-02 19:53:00
12:53 PM,66.9,27.0,22,30.23,10.0,NE,17.3,28.8,N/A,,Clear,40,2014-05-02 20:53:00
1:53 PM,68.0,27.0,21,30.22,10.0,NE,19.6,27.6,N/A,,Clear,40,2014-05-02 21:53:00
2:53 PM,68.0,26.1,21,30.19,10.0,NNE,18.4,31.1,N/A,,Clear,30,2014-05-02 22:53:00
3:53 PM,68.0,25.0,20,30.19,10.0,NNE,13.8,31.1,N/A,,Clear,20,2014-05-02 23:53:00
4:53 PM,68.0,24.1,19,30.17,10.0,NE,16.1,26.5,N/A,,Clear,40,2014-05-03 00:53:00
5:53 PM,68.0,24.1,19,30.17,10.0,NNE,13.8,27.6,N/A,,Clear,20,2014-05-03 01:53:00
6:53 PM,66.0,23.0,20,30.15,10.0,NNE,16.1,-,N/A,,Clear,20,2014-05-03 02:53:00
7:53 PM,64.0,23.0,21,30.14,10.0,NNE,11.5,-,N/A,,Clear,30,2014-05-03 03:53:00
8:53 PM,61.0,25.0,25,30.15,10.0,NE,10.4,-,N/A,,Clear,50,2014-05-03 04:53:00
9:53 PM,57.9,26.1,30,30.16,10.0,NNE,8.1,-,N/A,,Clear,30,2014-05-03 05:53:00
10:53 PM,55.9,24.1,29,30.16,10.0,NNE,5.8,-,N/A,,Clear,20,2014-05-03 06:53:00
11:53 PM,55.0,24.1,30,30.17,10.0,NNE,4.6,-,N/A,,Clear,20,2014-05-03 07:53:00